NUSAT-1 (FRESCO) (41557 NORAD) Tracking and Keplerian Element Data

This shows tracking and keplerian element data for the satellite.

Feedback or suggestion? Click here.




ElementValue
Catalog41557
NameNUSAT-1 (FRESCO)
Epoch Orbit40472
Epoch Day239.11106953
Epoch Year2023
RAAN350.4457
Inclination97.3876
Eccentricity0.0006873
Argument of Perigee232.3684
Mean Anonmoly127.6957
Mean Motion15.72491112
Decay Rate0.00134974
L11 41557U 16033B 23239.11106953 .00134974 00000+0 99925-3 0 9994
L22 41557 97.3876 350.4457 0006873 232.3684 127.6957 15.72491112404721



Live tracking and technical data element details for NUSAT-1 (FRESCO) (NORAD 41557). NUSAT-1 (FRESCO) can be tracked NOW for your location showing map with azimuth and elevation plus other details from your city location.







IsCatalogInMostPopularTable: catalog: 41557, numindb: 679
Update: records affected: 1



GetName: 41557 NUSAT-1 (FRESCO)

Hit Count: updated at: Fri, 14 Jun 2024 19:49:57 GMT